| time (UTC) | temp F | wind direction | speed MPH | gust MPH | rain 1hr in | rain 24hr in | rain mn in | humidity % | barometer mb |
| 20260504200344 | 74 | 282 | 7.0 | 12.0 | 0.00 | 0.00 | 0.00 | 50 | 1013.2 |
| 20260504195845 | 75 | 266 | 6.0 | 12.0 | 0.00 | 0.00 | 0.00 | 53 | 1013.3 |
| 20260504195346 | 74 | 240 | 6.0 | 13.0 | 0.00 | 0.00 | 0.00 | 52 | 1013.4 |
| 20260504195107 | 74 | 207 | 6.0 | 13.0 | 0.00 | 0.00 | 0.00 | 53 | 1013.5 |
| 20260504194338 | 74 | 237 | 7.0 | 12.0 | 0.00 | 0.00 | 0.00 | 51 | 1013.6 |
| 20260504193838 | 74 | 185 | 6.0 | 11.0 | 0.00 | 0.00 | 0.00 | 52 | 1013.7 |
| 20260504193340 | 74 | 286 | 5.0 | 12.0 | 0.00 | 0.00 | 0.00 | 50 | 1013.8 |
| 20260504192841 | 74 | 248 | 5.0 | 14.0 | 0.00 | 0.00 | 0.00 | 52 | 1014.0 |
| 20260504192341 | 74 | 246 | 5.0 | 14.0 | 0.00 | 0.00 | 0.00 | 52 | 1014.1 |
| 20260504191839 | 73 | 185 | 5.0 | 11.0 | 0.00 | 0.00 | 0.00 | 51 | 1014.2 |
| 20260504191341 | 73 | 232 | 5.0 | 11.0 | 0.00 | 0.00 | 0.00 | 50 | 1014.2 |
| 20260504190845 | 73 | 226 | 5.0 | 11.0 | 0.00 | 0.00 | 0.00 | 50 | 1014.3 |
| 20260504190340 | 73 | 259 | 6.0 | 12.0 | 0.00 | 0.00 | 0.00 | 55 | 1014.4 |
| 20260504185839 | 73 | 282 | 6.0 | 12.0 | 0.00 | 0.00 | 0.00 | 53 | 1014.4 |
| 20260504185559 | 73 | 280 | 6.0 | 11.0 | 0.00 | 0.00 | 0.00 | 52 | 1014.6 |
| 20260504184841 | 73 | 230 | 5.0 | 10.0 | 0.00 | 0.00 | 0.00 | 50 | 1014.8 |
| 20260504184334 | 73 | 173 | 4.0 | 10.0 | 0.00 | 0.00 | 0.00 | 51 | 1014.8 |
| 20260504183830 | 71 | 249 | 5.0 | 13.0 | 0.00 | 0.00 | 0.00 | 52 | 1014.9 |
| 20260504183326 | 71 | 318 | 6.0 | 13.0 | 0.00 | 0.00 | 0.00 | 50 | 1014.9 |
| 20260504182826 | 72 | 294 | 5.0 | 11.0 | 0.00 | 0.00 | 0.00 | 50 | 1015.0 |
| 20260504182546 | 73 | 257 | 5.0 | 9.0 | 0.00 | 0.00 | 0.00 | 53 | 1015.1 |
| 20260504181827 | 72 | 230 | 5.0 | 10.0 | 0.00 | 0.00 | 0.00 | 52 | 1015.1 |
| 20260504181325 | 71 | 269 | 5.0 | 10.0 | 0.00 | 0.00 | 0.00 | 52 | 1015.1 |
| 20260504180830 | 72 | 280 | 5.0 | 12.0 | 0.00 | 0.00 | 0.00 | 53 | 1015.2 |
| 20260504180330 | 71 | 161 | 4.0 | 12.0 | 0.00 | 0.00 | 0.00 | 54 | 1015.3 |
| 20260504175828 | 71 | 181 | 3.0 | 9.0 | 0.00 | 0.00 | 0.00 | 51 | 1015.3 |
| 20260504175330 | 71 | 194 | 5.0 | 9.0 | 0.00 | 0.00 | 0.00 | 54 | 1015.4 |
| 20260504174826 | 69 | 223 | 4.0 | 9.0 | 0.00 | 0.00 | 0.00 | 51 | 1015.4 |
| 20260504174325 | 70 | 239 | 4.0 | 9.0 | 0.00 | 0.00 | 0.00 | 55 | 1015.4 |
| 20260504173828 | 68 | 257 | 4.0 | 9.0 | 0.00 | 0.00 | 0.00 | 55 | 1015.4 |
| 20260504173323 | 69 | 270 | 4.0 | 9.0 | 0.00 | 0.00 | 0.00 | 55 | 1015.5 |
| 20260504172823 | 69 | 287 | 4.0 | 11.0 | 0.00 | 0.00 | 0.00 | 51 | 1015.6 |
| 20260504172323 | 70 | 355 | 4.0 | 11.0 | 0.00 | 0.00 | 0.00 | 55 | 1015.6 |
| 20260504171823 | 69 | 111 | 5.0 | 12.0 | 0.00 | 0.00 | 0.00 | 57 | 1015.7 |
| 20260504171324 | 68 | 218 | 4.0 | 12.0 | 0.00 | 0.00 | 0.00 | 54 | 1015.8 |
| 20260504171048 | 68 | 149 | 2.0 | 9.0 | 0.00 | 0.00 | 0.00 | 53 | 1015.9 |
| 20260504170324 | 68 | 58 | 2.0 | 6.0 | 0.00 | 0.00 | 0.00 | 53 | 1016.1 |
| 20260504160320 | 64 | 170 | 3.0 | 7.0 | 0.00 | 0.00 | 0.00 | 60 | 1016.9 |
| 20260504150805 | 58 | 334 | 1.0 | 3.0 | 0.00 | 0.00 | 0.00 | 64 | 1018.2 |
| 20260504150300 | 58 | 224 | 2.0 | 7.0 | 0.00 | 0.00 | 0.00 | 62 | 1018.3 |
| 20260504141304 | 55 | 41 | 3.0 | 8.0 | 0.00 | 0.00 | 0.00 | 71 | 1018.7 |
| 20260504140752 | 54 | 16 | 3.0 | 5.0 | 0.00 | 0.00 | 0.00 | 70 | 1019.0 |
| 20260504140247 | 54 | 355 | 3.0 | 5.0 | 0.00 | 0.00 | 0.00 | 71 | 1019.0 |
| 20260504130744 | 49 | 291 | 1.0 | 4.0 | 0.00 | 0.00 | 0.00 | 78 | 1018.1 |
| 20260504130239 | 48 | 235 | 0.0 | 4.0 | 0.00 | 0.00 | 0.00 | 79 | 1018.0 |
| 20260504120230 | 43 | 252 | 1.0 | 3.0 | 0.00 | 0.00 | 0.00 | 88 | 1017.4 |
| 20260504110718 | 40 | 131 | 4.0 | 8.0 | 0.00 | 0.00 | 0.00 | 90 | 1016.4 |
| 20260504110706 | 40 | 130 | 3.0 | 6.0 | 0.00 | 0.00 | 0.00 | 91 | 1016.3 |
| 20260504100206 | 40 | 72 | 0.0 | 0.0 | 0.00 | 0.00 | 0.00 | 86 | 1017.1 |
| 20260504081918 | 39 | 172 | 0.0 | 2.0 | 0.00 | 0.00 | 0.00 | 90 | 1017.1 |
| 20260504081149 | 39 | 172 | 0.0 | 2.0 | 0.00 | 0.00 | 0.00 | 89 | 1017.1 |
| 20260504080926 | 39 | 176 | 0.0 | 1.0 | 0.00 | 0.00 | 0.00 | 89 | 1017.1 |
| 20260504080150 | 39 | 176 | 0.0 | 1.0 | 0.00 | 0.00 | 0.00 | 89 | 1017.1 |
| 20260504070410 | 39 | 99 | 0.0 | 3.0 | 0.00 | 0.00 | 0.00 | 86 | 1016.8 |
| 20260504060116 | 42 | 143 | 1.0 | 4.0 | 0.00 | 0.00 | 0.00 | 81 | 1017.3 |
| 20260504050604 | 43 | 123 | 0.0 | 2.0 | 0.00 | 0.00 | 0.00 | 80 | 1017.1 |
| 20260504050106 | 43 | 123 | 0.0 | 2.0 | 0.00 | 0.00 | 0.00 | 81 | 1017.1 |
| 20260504045602 | 43 | 123 | 0.0 | 2.0 | 0.00 | 0.00 | 0.00 | 81 | 1017.1 |
| 20260504045101 | 42 | 151 | 1.0 | 3.0 | 0.00 | 0.00 | 0.00 | 82 | 1017.2 |
| 20260504044601 | 42 | 144 | 0.0 | 3.0 | 0.00 | 0.00 | 0.00 | 83 | 1017.2 |
| 20260504044059 | 42 | 113 | 0.0 | 3.0 | 0.00 | 0.00 | 0.00 | 83 | 1017.2 |
| 20260504043824 | 42 | 110 | 1.0 | 3.0 | 0.00 | 0.00 | 0.00 | 82 | 1017.2 |
| 20260504043055 | 42 | 93 | 0.0 | 2.0 | 0.00 | 0.00 | 0.00 | 82 | 1017.1 |
| 20260504042554 | 42 | 93 | 0.0 | 2.0 | 0.00 | 0.00 | 0.00 | 81 | 1017.2 |
| 20260504042056 | 42 | 93 | 1.0 | 2.0 | 0.00 | 0.00 | 0.00 | 82 | 1017.1 |
| 20260504041557 | 42 | 48 | 1.0 | 2.0 | 0.00 | 0.00 | 0.00 | 82 | 1016.9 |
| 20260504041054 | 42 | 99 | 0.0 | 2.0 | 0.00 | 0.00 | 0.00 | 83 | 1016.9 |
| 20260504040553 | 42 | 99 | 1.0 | 4.0 | 0.00 | 0.00 | 0.00 | 84 | 1016.9 |
| 20260504040050 | 42 | 98 | 1.0 | 4.0 | 0.00 | 0.00 | 0.00 | 84 | 1017.1 |
| 20260504035550 | 42 | 104 | 1.0 | 4.0 | 0.00 | 0.00 | 0.00 | 82 | 1017.1 |
| 20260504035050 | 43 | 104 | 1.0 | 4.0 | 0.00 | 0.00 | 0.00 | 81 | 1017.2 |
| 20260504034546 | 43 | 103 | 0.0 | 3.0 | 0.00 | 0.00 | 0.00 | 81 | 1017.1 |
| 20260504034046 | 43 | 104 | 0.0 | 2.0 | 0.00 | 0.00 | 0.00 | 82 | 1017.1 |
| 20260504033548 | 43 | 104 | 0.0 | 2.0 | 0.00 | 0.00 | 0.00 | 81 | 1016.9 |
| 20260504033045 | 43 | 104 | 0.0 | 2.0 | 0.00 | 0.00 | 0.00 | 80 | 1016.9 |
| 20260504032546 | 43 | 104 | 0.0 | 2.0 | 0.00 | 0.00 | 0.00 | 79 | 1016.9 |
| 20260504032045 | 43 | 104 | 1.0 | 4.0 | 0.00 | 0.00 | 0.00 | 80 | 1016.9 |
| 20260504032027 | 43 | 110 | 1.0 | 4.0 | 0.00 | 0.00 | 0.00 | 79 | 1016.8 |
| 20260504031044 | 44 | 100 | 0.0 | 3.0 | 0.00 | 0.00 | 0.00 | 78 | 1016.7 |
| 20260504030543 | 44 | 95 | 0.0 | 2.0 | 0.00 | 0.00 | 0.00 | 79 | 1016.7 |
| 20260504030320 | 44 | 95 | 0.0 | 1.0 | 0.00 | 0.00 | 0.00 | 79 | 1016.8 |
| 20260504025545 | 44 | 95 | 0.0 | 1.0 | 0.00 | 0.00 | 0.00 | 79 | 1016.8 |
| 20260504025042 | 44 | 95 | 0.0 | 1.0 | 0.00 | 0.00 | 0.00 | 79 | 1016.8 |
| 20260504024544 | 44 | 95 | 0.0 | 1.0 | 0.00 | 0.00 | 0.00 | 79 | 1016.8 |
| 20260504024534 | 44 | 95 | 1.0 | 2.0 | 0.00 | 0.00 | 0.00 | 79 | 1016.7 |
| 20260504023541 | 44 | 95 | 1.0 | 2.0 | 0.00 | 0.00 | 0.00 | 79 | 1016.7 |
| 20260504023041 | 43 | 102 | 1.0 | 3.0 | 0.00 | 0.00 | 0.00 | 80 | 1016.7 |
| 20260504022537 | 43 | 102 | 2.0 | 4.0 | 0.00 | 0.00 | 0.00 | 80 | 1016.7 |
| 20260504022040 | 44 | 104 | 1.0 | 4.0 | 0.00 | 0.00 | 0.00 | 78 | 1016.7 |
| 20260504021538 | 44 | 102 | 0.0 | 3.0 | 0.00 | 0.00 | 0.00 | 76 | 1016.7 |
| 20260504021045 | 44 | 102 | 0.0 | 2.0 | 0.00 | 0.00 | 0.00 | 76 | 1016.7 |
| 20260504020537 | 45 | 102 | 1.0 | 2.0 | 0.00 | 0.00 | 0.00 | 77 | 1016.6 |
| 20260504020300 | 45 | 102 | 0.0 | 2.0 | 0.00 | 0.00 | 0.00 | 77 | 1016.5 |
| 20260504015752 | 45 | 102 | 0.0 | 1.0 | 0.00 | 0.00 | 0.00 | 76 | 1016.5 |
| 20260504015035 | 45 | 102 | 1.0 | 3.0 | 0.00 | 0.00 | 0.00 | 76 | 1016.6 |
| 20260504014534 | 45 | 102 | 2.0 | 4.0 | 0.00 | 0.00 | 0.00 | 76 | 1016.6 |
| 20260504014259 | 46 | 103 | 1.0 | 4.0 | 0.00 | 0.00 | 0.00 | 74 | 1016.6 |
| 20260504013534 | 47 | 69 | 1.0 | 2.0 | 0.00 | 0.00 | 0.00 | 72 | 1016.6 |
| 20260504013034 | 47 | 69 | 1.0 | 2.0 | 0.00 | 0.00 | 0.00 | 72 | 1016.7 |
| 20260504012535 | 47 | 102 | 2.0 | 4.0 | 0.00 | 0.00 | 0.00 | 72 | 1016.6 |
| 20260504012031 | 48 | 102 | 2.0 | 4.0 | 0.00 | 0.00 | 0.00 | 70 | 1016.6 |
| 20260504011531 | 49 | 109 | 1.0 | 3.0 | 0.00 | 0.00 | 0.00 | 66 | 1016.6 |
| 20260504011031 | 49 | 39 | 0.0 | 2.0 | 0.00 | 0.00 | 0.00 | 65 | 1016.6 |
| 20260504010531 | 50 | 114 | 1.0 | 3.0 | 0.00 | 0.00 | 0.00 | 66 | 1016.4 |
| 20260504010031 | 50 | 114 | 1.0 | 3.0 | 0.00 | 0.00 | 0.00 | 65 | 1016.2 |
| 20260504005756 | 51 | 187 | 1.0 | 2.0 | 0.00 | 0.00 | 0.00 | 63 | 1016.3 |
| 20260504005032 | 52 | 187 | 0.0 | 2.0 | 0.00 | 0.00 | 0.00 | 60 | 1016.3 |
| 20260504004529 | 53 | 187 | 0.0 | 0.0 | 0.00 | 0.00 | 0.00 | 59 | 1016.2 |
| 20260504004029 | 53 | 187 | 0.0 | 0.0 | 0.00 | 0.00 | 0.00 | 56 | 1016.2 |
| 20260504003530 | 54 | 187 | 0.0 | 2.0 | 0.00 | 0.00 | 0.00 | 55 | 1016.0 |
| 20260504003029 | 54 | 187 | 1.0 | 3.0 | 0.00 | 0.00 | 0.00 | 54 | 1016.0 |
| 20260504002753 | 55 | 187 | 2.0 | 4.0 | 0.00 | 0.00 | 0.00 | 54 | 1015.9 |
| 20260504002032 | 56 | 176 | 2.0 | 4.0 | 0.00 | 0.00 | 0.00 | 51 | 1015.9 |
| 20260504001532 | 56 | 206 | 2.0 | 3.0 | 0.00 | 0.00 | 0.00 | 49 | 1015.9 |
| 20260504001026 | 57 | 209 | 2.0 | 4.0 | 0.00 | 0.00 | 0.00 | 48 | 1016.0 |
| 20260504000521 | 58 | 228 | 3.0 | 7.0 | 0.00 | 0.00 | 0.00 | 47 | 1015.9 |
| 20260504000018 | 58 | 253 | 3.0 | 7.0 | 0.00 | 0.00 | 0.00 | 47 | 1015.9 |
| 20260503235516 | 59 | 245 | 3.0 | 7.0 | 0.00 | 0.00 | 0.00 | 46 | 1015.9 |
| 20260503235014 | 59 | 233 | 4.0 | 7.0 | 0.00 | 0.00 | 0.00 | 45 | 1015.9 |
| 20260503234755 | 60 | 245 | 4.0 | 7.0 | 0.00 | 0.00 | 0.00 | 44 | 1015.9 |
| 20260503234015 | 60 | 237 | 4.0 | 9.0 | 0.00 | 0.00 | 0.00 | 45 | 1016.0 |
| 20260503233514 | 60 | 239 | 5.0 | 9.0 | 0.00 | 0.00 | 0.00 | 44 | 1016.0 |
| 20260503233012 | 60 | 247 | 6.0 | 10.0 | 0.00 | 0.00 | 0.00 | 44 | 1015.7 |
| 20260503232907 | 61 | 243 | 6.0 | 10.0 | 0.00 | 0.00 | 0.00 | 44 | 1016.0 |
| 20260503232247 | 61 | 248 | 7.0 | 14.0 | 0.00 | 0.00 | 0.00 | 43 | 1016.0 |
| 20260503231514 | 62 | 226 | 6.0 | 14.0 | 0.00 | 0.00 | 0.00 | 41 | 1016.0 |
| 20260503231014 | 62 | 253 | 3.0 | 11.0 | 0.00 | 0.00 | 0.00 | 41 | 1016.0 |
| 20260503230513 | 61 | 224 | 4.0 | 10.0 | 0.00 | 0.00 | 0.00 | 43 | 1016.0 |
| 20260503230013 | 62 | 186 | 6.0 | 10.0 | 0.00 | 0.00 | 0.00 | 42 | 1016.0 |
| 20260503225514 | 62 | 266 | 6.0 | 10.0 | 0.00 | 0.00 | 0.00 | 40 | 1016.0 |
| 20260503225021 | 62 | 226 | 7.0 | 11.0 | 0.00 | 0.00 | 0.00 | 42 | 1016.0 |
| 20260503224523 | 62 | 284 | 7.0 | 12.0 | 0.00 | 0.00 | 0.00 | 40 | 1016.1 |
| 20260503224021 | 61 | 248 | 6.0 | 12.0 | 0.00 | 0.00 | 0.00 | 41 | 1016.0 |
| 20260503223521 | 62 | 185 | 5.0 | 9.0 | 0.00 | 0.00 | 0.00 | 41 | 1016.1 |
| 20260503223238 | 62 | 247 | 6.0 | 12.0 | 0.00 | 0.00 | 0.00 | 41 | 1016.2 |
| 20260503222514 | 62 | 269 | 6.0 | 12.0 | 0.00 | 0.00 | 0.00 | 39 | 1016.3 |
| 20260503222013 | 63 | 278 | 4.0 | 9.0 | 0.00 | 0.00 | 0.00 | 39 | 1016.2 |
| 20260503221513 | 63 | 235 | 6.0 | 10.0 | 0.00 | 0.00 | 0.00 | 40 | 1016.3 |
| 20260503221011 | 63 | 255 | 5.0 | 10.0 | 0.00 | 0.00 | 0.00 | 40 | 1016.3 |
| 20260503220509 | 63 | 233 | 5.0 | 11.0 | 0.00 | 0.00 | 0.00 | 40 | 1016.3 |
| 20260503220008 | 63 | 297 | 6.0 | 12.0 | 0.00 | 0.00 | 0.00 | 39 | 1016.3 |
| 20260503215508 | 62 | 232 | 5.0 | 12.0 | 0.00 | 0.00 | 0.00 | 40 | 1016.3 |
| 20260503215007 | 62 | 295 | 5.0 | 9.0 | 0.00 | 0.00 | 0.00 | 41 | 1016.4 |
| 20260503214501 | 62 | 224 | 6.0 | 12.0 | 0.00 | 0.00 | 0.00 | 41 | 1016.4 |
| 20260503213957 | 63 | 232 | 7.0 | 12.0 | 0.00 | 0.00 | 0.00 | 40 | 1016.5 |
| 20260503213456 | 63 | 242 | 7.0 | 14.0 | 0.00 | 0.00 | 0.00 | 39 | 1016.5 |
| 20260503212953 | 63 | 236 | 6.0 | 14.0 | 0.00 | 0.00 | 0.00 | 38 | 1016.6 |
| 20260503212455 | 63 | 221 | 6.0 | 13.0 | 0.00 | 0.00 | 0.00 | 41 | 1016.6 |
| 20260503211955 | 63 | 203 | 5.0 | 13.0 | 0.00 | 0.00 | 0.00 | 42 | 1016.6 |
| 20260503211455 | 63 | 227 | 5.0 | 11.0 | 0.00 | 0.00 | 0.00 | 43 | 1016.7 |
| 20260503210955 | 63 | 172 | 6.0 | 11.0 | 0.00 | 0.00 | 0.00 | 43 | 1016.9 |
| 20260503210452 | 63 | 222 | 6.0 | 15.0 | 0.00 | 0.00 | 0.00 | 44 | 1016.9 |
| 20260503205950 | 62 | 248 | 6.0 | 15.0 | 0.00 | 0.00 | 0.00 | 41 | 1016.9 |
| 20260503205712 | 62 | 276 | 5.0 | 14.0 | 0.00 | 0.00 | 0.00 | 41 | 1016.8 |
| 20260503204949 | 62 | 283 | 5.0 | 14.0 | 0.00 | 0.00 | 0.00 | 43 | 1016.9 |
| 20260503204450 | 61 | 309 | 7.0 | 16.0 | 0.00 | 0.00 | 0.00 | 42 | 1017.1 |
| 20260503204208 | 62 | 279 | 7.0 | 16.0 | 0.00 | 0.00 | 0.00 | 44 | 1017.1 |
| 20260503203452 | 62 | 170 | 7.0 | 12.0 | 0.00 | 0.00 | 0.00 | 41 | 1017.2 |
| 20260503202951 | 61 | 204 | 7.0 | 12.0 | 0.00 | 0.00 | 0.00 | 42 | 1017.4 |
| 20260503202445 | 62 | 249 | 5.0 | 12.0 | 0.00 | 0.00 | 0.00 | 41 | 1017.5 |
| 20260503202217 | 62 | 276 | 4.0 | 8.0 | 0.00 | 0.00 | 0.00 | 40 | 1017.6 |
| 20260503201443 | 62 | 193 | 6.0 | 13.0 | 0.00 | 0.00 | 0.00 | 44 | 1017.7 |
| 20260503200943 | 61 | 232 | 6.0 | 13.0 | 0.00 | 0.00 | 0.00 | 43 | 1017.8 |